Voltar ao catálogo

TIROS 5

AtivoMeteoLEO
NORAD 309·PAYLOAD·🇺🇸 United States

Lançado Jun 19, 1962 de Cape Canaveral Space Force Station

Loading…

Próximas Passagens (próximas 24 horas)

TLE

AtualizadoSource: Space-Track

Época: Sep 14, 2026, 16:05 UTC

1 00309U 62025A   26257.67033575  .00000401  00000-0  98671-4 0  9995
2 00309  58.0880 250.7693 0185986  31.1924 329.9985 14.60725802394907

Acompanhe TIROS 5 em tempo real com AllMySat

Download on the App Store